Location: Norton
(51.3000°N, 0.8167°E)
Time: 13:52:39
(UTC+00:00)

Cosmos 1703 Rocket - Pass Details

Date: 03 March 2021
Orbit: 604 x 634 km, 82.5° (Epoch: 11 April)

Event Time Altitude Azimuth Distance (km) Brightness Sun altitude
Rises 18:46:09 0° 353° (N) 2,918 7.2 -11.0°
Reaches altitude 10° 18:48:28 10° 359° (N) 2,001 6.2 -11.3°
Maximum altitude 18:52:46 48° 74° (ENE) 809 3.8 -12.0°
Drops below altitude 10° 18:57:00 10° 150° (SSE) 1,968 5.8 -12.6°
Sets 18:59:15 0° 156° (SSE) 2,863 6.7 -13.0°
